Regional Weather Roundup
Issued by NWS New Orleans/Baton Rouge, LA

Home | Current Version | Previous Version | Graphics & Text | Print | Product List | Glossary On
Versions: 1 2 3 4 5 6 7 8 9 10 11 12 13 14 15 16 17 18 19 20 21 22 23 24 25 26 27 28 29 30 31 32 33 34 35 36 37 38 39 40 41 42 43 44 45 46 47 48 49 50
797
ASUS44 KLIX 182207
RWRLIX
NEW ORLEANS REGIONAL WEATHER ROUNDUP
NATIONAL WEATHER SERVICE NEW ORLEANS LA
500 PM CDT SAT APR 18 2015

NOTE: "FAIR" INDICATES FEW OR NO CLOUDS BELOW 12,000 FEET WITH NO
      SIGNIFICANT WEATHER AND/OR OBSTRUCTIONS TO VISIBILITY.
      SKY/WX - SKY CONDITION AND SIGNIFICANT WEATHER.
      TMP - AIR TEMPERATURE.     DP    - DEWPOINT TEMPERATURE.
      RH  - RELATIVE HUMIDITY.   PRES  - PRESSURE.
      HI  - HEAT INDEX.          WCI   - WIND CHILL INDEX.

*  THESE STATIONS ARE NOT NWS OR FAA STATIONS AND ARE NOT UNDER
   NWS QUALITY CONTROL.

LAZ038-040-048-061>063-065>067-069-182300-
SOUTHEAST LOUISIANA

CITY           SKY/WX    TMP DP  RH WIND       PRES   REMARKS
N.O. AUDUBON     N/A     76  73  90 MISG        N/A
N.O. INTL ARPT LGT RAIN  74  70  87 SW6       29.86R
N.O. LAKEFRONT CLOUDY    77  69  76 S7        29.86S
SLIDELL        CLOUDY    75  71  87 S7        29.86R
BATON ROUGE    CLOUDY    76  67  73 S10       29.83F
BOOTHVILLE     LGT RAIN  72  69  90 SE9       29.87R
BELLE CHASSE   LGT RAIN  74  69  85 S7        29.86R
BOGALUSA*        N/A     79  69  69 S8        29.86F
GALLIANO*      LGT RAIN  74  70  88 CALM      29.87R
NEW ROADS*     CLOUDY    74  69  82 S7        29.83F
GONZALES*        N/A     75  70  84 S6        29.83F
HAMMOND*       HVY RAIN  73  68  83 SE9G17    29.87S
HOUMA*         MOSUNNY   73  72  94 SE6       29.85F
PORT FOURCHON* CLOUDY    73  72  94 SE6       29.88F

$$

MSZ070-080>082-182300-
SOUTHERN MISSISSIPPI

CITY           SKY/WX    TMP DP  RH WIND       PRES   REMARKS
MCCOMB         CLOUDY    75  69  81 S9        29.83F
GULFPORT       CLOUDY    75  70  84 S6        29.86S
BILOXI         CLOUDY    75  73  91 S8        29.86S
PASCAGOULA     CLOUDY    75  69  81 S5        29.88R
STENNIS ARPT*  PTSUNNY   75  66  73 MISG      29.86F

$$

COASTAL OBSERVATIONS
LAKE AND NEARSHORE STATIONS

STATION/POSITION TIME  TEMP    WIND        PRES    WAVE
                       AIR SEA DIR/SP/G            HT/PER
                 (UTC) (F)     (DEG/KT/KT) (MB)    (FT/S)
PASCAGOULA       2100   76     160/  6/  9 1010.8
WAVELAND YACHT   2100   74 73  190/  6/ 12 1011.2
GRAND ISLE       2100   73 75  140/ 10/ 13 1010.5
SOUTHWEST PASS   2100   71 63  120/ 17/ 21 1011.4
NEW CANAL        2100   76     150/  5/  9 1011.4
SHELL BEACH      2100   73 76  160/  8/ 11 1010.4

OFFSHORE STATIONS

STATION/POSITION TIME  TEMP    WIND        PRES    WAVE
                       AIR SEA DIR/SP/G            HT/PER
                 (UTC) (F)     (DEG/KT/KT) (MB)    (FT/S)
64 S DAUPHIN ISL 2150   73 75  150/ 16/ 17 1011.2    2/ 4

$$




USA.gov is the U.S. government's official web portal to all federal, state and local government web resources and services.